Tracking 25707 objects as of 29-Jun-2022
HD Live streaming from Space Station
objects crossing your sky now

USA 330

Track USA 330 now!
10-day predictions


NORAD ID: 52891
Int'l Code: 2022-064D
Perigee: 530.3 km
Apogee: 535.5 km
Inclination: 53.0 °
Period: 95.1 minutes
Semi major axis: 6903 km
RCS: Unknown
Launch date: June 19, 2022
Source: United States (US)
Launch site: AIR FORCE EASTERN TEST RANGE (AFETR)
aabbcc
Your satellite tracking list
Your tracking list is empty




NASA's NSSDC Master Catalog

Two Line Element Set (TLE):
1 52891U 22064D   22176.38978073 0.00000000  00000-0  00000-0 0    05
2 52891  52.9995 203.7236 0003770 275.2394  84.7519 15.13429490    00
Source of the keplerian elements: McCants